Weather in Nha Trang

Vietnam     12˚14′53″N   109˚11′17″E
temp.,
°C
wind,
m/s
gust,
m/s
humid.,
%
clouds,
%
prec.,
mm/h
press.,
hPa
HPBL,
m
3 december, thu
thu301:00+22˚n610837 0.3 1013760
04:00+22˚n7118417 0.1 1013777
07:00+23˚n7128217 0.3 1014893
10:00+25˚n10137227 0.1 10151386
13:00+25˚nne10137119 0.1 10121378
16:00+24˚n1013750 0.0 10111165
19:00+23˚n913806 0.1 1014926
22:00+22˚n8138348 0.1 1015869
4 december, fri
fri401:00+21˚nnw6108425 0.1 1014762
04:00+21˚nnw6118341 0.1 1013776
07:00+22˚nnw6108369 0.3 1014770
10:00+24˚n9147865 0.4 10141234
13:00+25˚n10147457 0.6 10111290
16:00+24˚n1014787 0.1 10101117
19:00+23˚n8138420 0.3 1013773
22:00+22˚n7118642 0.3 1014735
5 december, sat
sat501:00+22˚n7108643 0.5 1013718
04:00+22˚n6108748 0.3 1012715
07:00+22˚n7108669 0.6 1014722
10:00+25˚n9138074 0.3 10141138
13:00+25˚n10147650 0.6 10111186
16:00+25˚n9127984 0.1 10111036
19:00+23˚n7118462 0.1 1014736
22:00+23˚nnw61086100 0.1 1014682
6 december, sun
sun601:00+23˚nnw6985100 0.1 1013682
04:00+23˚nnw598699 0.2 1011703
07:00+23˚nnw6118685 0.4 1013722
10:00+25˚n81381100 0.3 10141087
13:00+25˚n7118299 0.4 1012938
16:00+24˚n71084100 0.1 1011690
19:00+24˚n61085100 0.1 1013627
22:00+23˚nnw61086100 0.2 1014613
7 december, mon
mon701:00+23˚nnw5886100 0.4 1012517
04:00+23˚nnw5987100 0.4 1011522
07:00+23˚n6990100 0.8 1013581
10:00+23˚n5893100 2.4 1013550
13:00+24˚n5893100 4.7 1011579
16:00+24˚nnw5892100 1.8 1010584
19:00+24˚n61291100 3.4 1013610
22:00+24˚n6119198 2.1 1014639